Powrót do katalogu

FENGYUN 1C DEB

AktywnyPO
NORAD 30759·DEBRIS·🇨🇳 China

Wystrzelony May 10, 1999 z Taiyuan Satellite Launch Center

Loading…

Następne Przeloty (najbliższe 24 godziny)

TLE

ŚwieżeSource: Space-Track

Epoka: Sep 14, 2026, 08:13 UTC

1 30759U 99025ATV 26257.34289826  .00006475  00000-0  13558-2 0  9999
2 30759  99.2694  40.9264 0007654  69.3353 320.9423 14.60122673 16711

Śledź FENGYUN 1C DEB w czasie rzeczywistym z AllMySat

Download on the App Store